Location: Unspecified
(0.0000°N, 0.0000°E)
Time: 05:51:29
(UTC+00:00)

Courier 1B - Pass Details

Date: 26 September 2023
Orbit: 962 x 1208 km, 28.3° (Epoch: 06 December)

Event Time Altitude Azimuth Distance (km) Brightness Sun altitude
Rises 22:17:11 0° 285° (WNW) 3,876 - -66.4°
Reaches altitude 10° 22:20:10 10° 279° (W) 2,881 - -67.2°
Maximum altitude 22:26:41 41° 210° (SSW) 1,428 - -68.8°
Drops below altitude 10° 22:32:53 10° 141° (SE) 2,738 - -70.4°
Sets 22:35:39 0° 134° (SE) 3,665 - -71.0°
